Location: Hackberry
(29.5783°N, 96.8797°W)
Time: 13:47:38
(UTC+00:00)

Vanguard 2 Rocket - Pass Details

Date: 16 November 2024
Orbit: 554 x 3296 km, 32.9° (Epoch: 30 November)

Event Time Altitude Azimuth Distance (km) Brightness Sun altitude
Exits shadow 10:19:28 10° 198° (SSW) 3,549 9.8 -33.3°
Maximum altitude 10:28:00 36° 136° (SE) 2,931 9.7 -31.5°
Drops below altitude 10° 10:41:33 10° 78° (ENE) 5,636 11.8 -28.5°
Sets 10:47:11 0° 72° (ENE) 6,966 12.4 -27.3°
